Home > Weather > Wroclaw > Past weeks

Flag for Poland Past Weather in Wroclaw, Poland — Yesterday and Last 2 Weeks

Now
82 °F

Passing clouds.


Feels Like: 82 °F
Forecast: 63 / 88 °F
Wind: 6 mph from West

Location: Wroclaw Ii

Current Time: Jul 1, 2016 at 3:43:28 PM

Latest Report: Jul 1, 2016 at 3:00 PM


Visibility: N/A

Pressure: 30.01 "Hg

Humidity: 45%

Dew Point: 59 °F

Location of WroclawLocation

Past Weather in Wroclaw — Graph

°F

Wroclaw Temperature Yesterday

Maximum temperature yesterday: 86 °F (at 12:30 PM)
Minimum temperature yesterday: 57 °F (at 3:00 AM)
Average temperature yesterday: 68 °F

High & Low Weather Summary for the Past Weeks

 TemperatureHumidityPressure
High93 °F (Jun 25, 3:00 PM)100% (Jun 18, 10:30 PM)30.30 "Hg (Jun 18, 10:30 PM)
Low52 °F (Jun 19, 2:30 AM)36% (Jun 24, 3:00 PM)29.42 "Hg (Jun 17, 7:00 AM)
Average68 °F74%30.02 "Hg
* Reported Jun 16 2:00 PM — Jul 1 2:30 PM, Wroclaw, Weather by CustomWeather, © 2016

Note: Actual official high and low records may vary slightly from our data, if they occured in-between our weather recording intervals... More about our weather records

Advertising

Wroclaw Weather History for the Previous 24 Hours

Scroll right to see more
 ConditionsComfort  
Time TempWeatherWind HumidityBarometerVisibility
2:30 PM
Fri, Jul 1
79 °FPassing clouds.6 mph48%30.01 "HgN/A
2:00 PM77 °FPassing clouds.5 mph57%30.01 "HgN/A
1:30 PM77 °FScattered clouds.7 mph61%30.04 "HgN/A
1:00 PM79 °FPassing clouds.2 mph54%30.04 "HgN/A
12:30 PM79 °FPassing clouds.5 mph58%30.04 "HgN/A
12:00 PM77 °FPassing clouds.5 mph61%30.04 "HgN/A
11:30 AM77 °FPassing clouds.6 mph61%30.04 "HgN/A
11:00 AM75 °FPassing clouds.3 mph69%30.04 "HgN/A
10:30 AM75 °FPassing clouds.3 mph61%30.04 "HgN/A
10:00 AM73 °FPassing clouds.5 mph74%30.04 "HgN/A
9:30 AM72 °FSunny.5 mph83%30.04 "Hg10 mi
9:00 AM72 °FPassing clouds.6 mph78%30.04 "HgN/A
8:30 AM68 °FPassing clouds.3 mph83%30.04 "HgN/A
8:00 AM66 °FSunny.2 mph88%30.01 "Hg10 mi
7:30 AM64 °FPassing clouds.3 mph94%30.01 "HgN/A
7:00 AM64 °FSunny.2 mph88%30.01 "Hg10 mi
6:30 AM63 °FSunny.2 mph94%30.01 "Hg10 mi
6:00 AM59 °FFog.3 mph100%30.01 "Hg1 mi
5:30 AM59 °FCool.1 mph100%30.01 "Hg1 mi
5:00 AM59 °FFog.3 mph94%30.01 "Hg1 mi
4:30 AM59 °FLight fog.2 mph100%30.01 "Hg1 mi
4:00 AM57 °FFog.1 mph100%30.01 "Hg0 mi
3:30 AM59 °FFog.2 mph94%30.01 "Hg0 mi
3:00 AM59 °FFog.1 mph100%30.01 "Hg0 mi
2:30 AM61 °FLight fog.3 mph94%30.01 "Hg0 mi
2:00 AM61 °FLight fog.5 mph100%30.01 "Hg1 mi
1:30 AM61 °FFog.1 mph100%30.01 "Hg0 mi
1:00 AM59 °FFog.2 mph100%30.01 "Hg0 mi
12:30 AM63 °FRain. Overcast.1 mph94%30.01 "Hg1 mi
12:00 AM63 °FMild.1 mph100%30.01 "HgN/A
11:30 PM
Thu, Jun 30
64 °FFog.3 mph94%30.01 "HgN/A
11:00 PM64 °FFog.2 mph100%30.01 "HgN/A
10:30 PM66 °FFog.2 mph94%29.98 "HgN/A
10:00 PM66 °FFog.5 mph94%29.98 "HgN/A
9:30 PM66 °FPassing clouds.5 mph94%29.98 "HgN/A
9:00 PM66 °FSprinkles. Scattered clouds.2 mph94%29.98 "HgN/A
8:30 PM68 °FSprinkles. Partly sunny.2 mph88%29.98 "HgN/A
8:00 PM68 °FScattered clouds.5 mph78%29.98 "HgN/A
7:30 PM68 °FSprinkles. Scattered clouds.5 mph88%29.98 "HgN/A
7:00 PM70 °FSprinkles. Scattered clouds.7 mph83%29.98 "HgN/A
6:30 PM72 °FScattered clouds.3 mph73%29.98 "HgN/A
6:00 PM72 °FSprinkles. Scattered clouds.6 mph78%29.98 "HgN/A
5:30 PM70 °FSprinkles. Scattered clouds.2 mph83%29.98 "HgN/A
5:00 PM72 °FSprinkles. Scattered clouds.8 mph69%29.98 "HgN/A
4:30 PM72 °FScattered clouds.6 mph73%29.95 "HgN/A
4:00 PM72 °FSprinkles. Scattered clouds.1 mph78%29.95 "HgN/A
3:30 PM72 °FSprinkles. Scattered clouds.3 mph78%29.95 "HgN/A
3:00 PM70 °FSprinkles. Partly sunny.5 mph83%29.95 "HgN/A
Weather by CustomWeather, © 2016

See weather overviewHow to use our weather pages